Time,TemperatureF,DewpointF,PressureIn,WindDirection,WindDirectionDegrees,WindSpeedMPH,WindSpeedGustMPH,Humidity,HourlyPrecipIn,Conditions,Clouds,dailyrainin,SoftwareType,DateUTC
2013-06-16 00:02:00,65.5,62.3,29.83,WSW,255,0.7,1.1,89,0.00,,,0.00,WUHU216HW,2013-06-16 05:02:00,
2013-06-16 00:12:00,65.3,62.4,29.84,WSW,239,0.7,1.3,90,0.00,,,0.00,WUHU216HW,2013-06-16 05:12:00,
2013-06-16 00:22:00,65.1,62.2,29.84,West,260,1.9,3.4,90,0.00,,,0.00,WUHU216HW,2013-06-16 05:22:00,
2013-06-16 00:32:00,64.9,61.7,29.84,WSW,256,1.5,2.5,89,0.00,,,0.00,WUHU216HW,2013-06-16 05:32:00,
2013-06-16 00:42:00,64.9,61.7,29.83,NW,316,1.3,2.2,89,0.00,,,0.00,WUHU216HW,2013-06-16 05:42:00,
2013-06-16 00:52:00,64.6,61.4,29.84,WNW,288,0.7,1.6,89,0.00,,,0.00,WUHU216HW,2013-06-16 05:52:00,
2013-06-16 01:03:00,64.6,61.4,29.84,West,266,1.2,2.2,89,0.00,,,0.00,WUHU216HW,2013-06-16 06:03:00,
2013-06-16 01:13:00,64.2,61.0,29.84,WSW,242,1.0,1.6,89,0.00,,,0.00,WUHU216HW,2013-06-16 06:13:00,
2013-06-16 01:23:00,64.2,61.0,29.84,WSW,251,1.1,2.7,89,0.00,,,0.00,WUHU216HW,2013-06-16 06:23:00,
2013-06-16 01:33:00,64.2,61.0,29.83,West,270,1.9,3.8,89,0.00,,,0.00,WUHU216HW,2013-06-16 06:33:00,
2013-06-16 01:43:00,64.0,60.8,29.83,WSW,248,1.3,2.5,89,0.00,,,0.00,WUHU216HW,2013-06-16 06:43:00,
2013-06-16 01:53:00,63.8,60.6,29.82,West,262,1.6,2.9,89,0.00,,,0.00,WUHU216HW,2013-06-16 06:53:00,
2013-06-16 02:03:00,63.8,60.6,29.82,West,275,2.3,3.1,89,0.00,,,0.00,WUHU216HW,2013-06-16 07:03:00,
2013-06-16 02:13:00,63.8,60.6,29.82,WSW,246,1.7,3.1,89,0.00,,,0.00,WUHU216HW,2013-06-16 07:13:00,
2013-06-16 02:23:00,63.7,60.5,29.82,SW,235,1.1,2.7,89,0.00,,,0.00,WUHU216HW,2013-06-16 07:23:00,
2013-06-16 02:33:00,63.8,60.6,29.83,WSW,257,1.8,3.4,89,0.00,,,0.00,WUHU216HW,2013-06-16 07:33:00,
2013-06-16 02:43:00,63.8,60.6,29.83,West,260,1.9,3.1,89,0.00,,,0.00,WUHU216HW,2013-06-16 07:43:00,
2013-06-16 02:53:00,63.8,60.9,29.83,West,281,2.5,3.8,90,0.00,,,0.00,WUHU216HW,2013-06-16 07:53:00,
2013-06-16 03:03:00,64.0,61.1,29.83,WNW,296,2.5,4.3,90,0.00,,,0.00,WUHU216HW,2013-06-16 08:03:00,
2013-06-16 03:13:00,64.0,61.1,29.83,WNW,283,1.7,2.5,90,0.00,,,0.00,WUHU216HW,2013-06-16 08:13:00,
2013-06-16 03:23:00,63.8,60.9,29.83,West,268,2.3,3.4,90,0.00,,,0.00,WUHU216HW,2013-06-16 08:23:00,
2013-06-16 03:33:00,63.8,60.9,29.84,WSW,258,3.0,4.9,90,0.00,,,0.00,WUHU216HW,2013-06-16 08:33:00,
2013-06-16 03:43:00,63.7,60.8,29.83,West,274,2.0,3.4,90,0.00,,,0.00,WUHU216HW,2013-06-16 08:43:00,
2013-06-16 03:53:00,63.7,60.8,29.83,WSW,252,1.3,2.7,90,0.00,,,0.00,WUHU216HW,2013-06-16 08:53:00,
2013-06-16 04:03:00,63.7,60.8,29.83,WSW,239,0.9,1.3,90,0.00,,,0.00,WUHU216HW,2013-06-16 09:03:00,
2013-06-16 04:13:00,63.7,60.8,29.84,WSW,251,3.3,4.7,90,0.00,,,0.00,WUHU216HW,2013-06-16 09:13:00,
2013-06-16 04:23:00,63.7,60.8,29.84,WSW,240,2.1,3.4,90,0.00,,,0.00,WUHU216HW,2013-06-16 09:23:00,
2013-06-16 04:33:00,63.5,60.9,29.84,WSW,249,2.1,3.1,91,0.00,,,0.00,WUHU216HW,2013-06-16 09:33:00,
2013-06-16 04:43:00,63.5,60.9,29.85,West,265,2.2,3.1,91,0.00,,,0.00,WUHU216HW,2013-06-16 09:43:00,
2013-06-16 04:53:00,63.3,60.7,29.85,West,263,2.1,3.1,91,0.00,,,0.00,WUHU216HW,2013-06-16 09:53:00,
2013-06-16 05:03:00,63.3,60.7,29.86,West,277,1.7,3.8,91,0.00,,,0.00,WUHU216HW,2013-06-16 10:03:00,
2013-06-16 05:13:00,63.3,60.7,29.85,West,260,1.9,2.9,91,0.00,,,0.00,WUHU216HW,2013-06-16 10:13:00,
2013-06-16 05:23:00,63.1,60.5,29.86,West,261,1.7,3.4,91,0.00,,,0.00,WUHU216HW,2013-06-16 10:23:00,
2013-06-16 05:33:00,63.1,60.5,29.86,West,267,0.4,1.3,91,0.00,,,0.00,WUHU216HW,2013-06-16 10:33:00,
2013-06-16 05:43:00,63.1,60.5,29.86,WSW,252,0.6,2.9,91,0.00,,,0.00,WUHU216HW,2013-06-16 10:43:00,
2013-06-16 05:53:00,63.1,60.5,29.86,West,262,0.4,1.8,91,0.00,,,0.00,WUHU216HW,2013-06-16 10:53:00,
2013-06-16 06:03:00,63.3,60.7,29.87,West,260,1.0,2.7,91,0.00,,,0.00,WUHU216HW,2013-06-16 11:03:00,
2013-06-16 06:13:00,63.3,60.7,29.86,WSW,255,1.1,3.1,91,0.00,,,0.00,WUHU216HW,2013-06-16 11:13:00,
2013-06-16 06:23:00,63.5,60.9,29.87,West,260,1.1,2.5,91,0.00,,,0.00,WUHU216HW,2013-06-16 11:23:00,
2013-06-16 06:33:00,63.7,61.1,29.87,WSW,239,1.1,1.8,91,0.00,,,0.00,WUHU216HW,2013-06-16 11:33:00,
2013-06-16 06:43:00,64.0,61.4,29.87,West,261,1.3,2.2,91,0.00,,,0.00,WUHU216HW,2013-06-16 11:43:00,
2013-06-16 06:53:00,64.6,62.0,29.87,WSW,253,1.5,2.7,91,0.00,,,0.00,WUHU216HW,2013-06-16 11:53:00,
2013-06-16 07:03:00,64.9,62.3,29.87,WSW,255,1.4,3.1,91,0.00,,,0.00,WUHU216HW,2013-06-16 12:03:00,
2013-06-16 07:13:00,65.6,63.0,29.87,WSW,237,2.5,4.9,91,0.00,,,0.00,WUHU216HW,2013-06-16 12:13:00,
2013-06-16 07:23:00,66.4,64.1,29.87,WSW,245,1.9,3.8,92,0.00,,,0.00,WUHU216HW,2013-06-16 12:23:00,
2013-06-16 07:34:00,67.1,64.8,29.88,West,279,2.4,3.8,92,0.00,,,0.00,WUHU216HW,2013-06-16 12:34:00,
2013-06-16 07:44:00,68.0,65.4,29.87,West,274,2.9,4.7,91,0.00,,,0.00,WUHU216HW,2013-06-16 12:44:00,
2013-06-16 07:54:00,68.7,65.8,29.88,West,279,3.1,5.6,90,0.00,,,0.00,WUHU216HW,2013-06-16 12:54:00,
2013-06-16 08:04:00,69.6,66.6,29.87,SW,228,2.4,4.0,90,0.00,,,0.00,WUHU216HW,2013-06-16 13:04:00,
2013-06-16 08:14:00,70.3,67.0,29.87,West,260,3.5,5.8,89,0.00,,,0.00,WUHU216HW,2013-06-16 13:14:00,
2013-06-16 08:24:00,70.7,66.8,29.87,West,270,3.2,5.1,87,0.00,,,0.00,WUHU216HW,2013-06-16 13:24:00,
2013-06-16 08:34:00,71.6,67.7,29.87,West,268,3.1,5.4,87,0.00,,,0.00,WUHU216HW,2013-06-16 13:34:00,
2013-06-16 08:44:00,72.3,68.0,29.87,West,260,3.7,5.8,86,0.00,,,0.00,WUHU216HW,2013-06-16 13:44:00,
2013-06-16 08:54:00,73.2,68.6,29.88,WSW,252,3.7,5.6,85,0.00,,,0.00,WUHU216HW,2013-06-16 13:54:00,
2013-06-16 09:04:00,73.2,66.9,29.88,West,275,2.8,3.8,80,0.00,,,0.00,WUHU216HW,2013-06-16 14:04:00,
2013-06-16 09:14:00,74.3,68.7,29.88,WSW,254,3.4,5.8,82,0.00,,,0.00,WUHU216HW,2013-06-16 14:14:00,
2013-06-16 09:24:00,75.0,69.0,29.88,WSW,258,3.8,6.0,81,0.00,,,0.00,WUHU216HW,2013-06-16 14:24:00,
2013-06-16 09:34:00,75.5,68.8,29.88,West,261,2.8,4.9,79,0.00,,,0.00,WUHU216HW,2013-06-16 14:34:00,
2013-06-16 09:44:00,76.1,66.8,29.88,West,280,2.7,5.1,72,0.00,,,0.00,WUHU216HW,2013-06-16 14:44:00,
2013-06-16 09:54:00,76.8,68.6,29.88,West,261,2.2,4.7,75,0.00,,,0.00,WUHU216HW,2013-06-16 14:54:00,
2013-06-16 10:04:00,77.2,68.2,29.88,West,278,2.7,4.7,73,0.00,,,0.00,WUHU216HW,2013-06-16 15:04:00,
2013-06-16 10:14:00,77.3,65.0,29.88,SW,227,3.5,6.3,65,0.00,,,0.00,WUHU216HW,2013-06-16 15:14:00,
2013-06-16 10:24:00,77.5,62.9,29.88,West,271,3.3,4.3,60,0.00,,,0.00,WUHU216HW,2013-06-16 15:24:00,
2013-06-16 10:34:00,76.8,64.5,29.88,WNW,288,3.8,6.3,65,0.00,,,0.00,WUHU216HW,2013-06-16 15:34:00,
2013-06-16 10:44:00,77.2,64.0,29.87,NW,307,3.6,6.5,63,0.00,,,0.00,WUHU216HW,2013-06-16 15:44:00,
2013-06-16 10:54:00,78.4,66.5,29.87,West,271,3.3,6.9,66,0.00,,,0.00,WUHU216HW,2013-06-16 15:54:00,
2013-06-16 11:04:00,79.7,63.5,29.87,West,276,3.4,5.6,57,0.00,,,0.00,WUHU216HW,2013-06-16 16:04:00,
2013-06-16 11:14:00,79.9,62.2,29.87,WNW,293,3.5,6.5,54,0.00,,,0.00,WUHU216HW,2013-06-16 16:14:00,
2013-06-16 11:24:00,79.0,60.8,29.87,NW,308,3.7,6.9,53,0.00,,,0.00,WUHU216HW,2013-06-16 16:24:00,
2013-06-16 11:34:00,80.0,64.8,29.87,West,278,2.8,5.4,59,0.00,,,0.00,WUHU216HW,2013-06-16 16:34:00,
2013-06-16 11:44:00,81.5,60.8,29.87,WNW,288,3.0,6.0,49,0.00,,,0.00,WUHU216HW,2013-06-16 16:44:00,
2013-06-16 11:54:00,81.3,63.5,29.87,NW,306,2.7,4.0,54,0.00,,,0.00,WUHU216HW,2013-06-16 16:54:00,
2013-06-16 12:04:00,82.9,62.7,29.87,WNW,290,1.6,2.9,50,0.00,,,0.00,WUHU216HW,2013-06-16 17:04:00,
2013-06-16 12:14:00,83.1,59.9,29.87,West,260,2.7,5.1,45,0.00,,,0.00,WUHU216HW,2013-06-16 17:14:00,
2013-06-16 12:24:00,82.6,60.6,29.88,WSW,252,5.2,9.2,47,0.00,,,0.00,WUHU216HW,2013-06-16 17:24:00,
2013-06-16 12:34:00,82.6,58.1,29.88,West,264,5.3,7.6,43,0.00,,,0.00,WUHU216HW,2013-06-16 17:34:00,
2013-06-16 12:44:00,81.5,56.4,29.88,WNW,303,5.1,6.7,42,0.00,,,0.00,WUHU216HW,2013-06-16 17:44:00,
2013-06-16 12:54:00,81.8,56.0,29.88,West,272,5.6,10.1,41,0.00,,,0.00,WUHU216HW,2013-06-16 17:54:00,
2013-06-16 13:04:00,81.3,55.6,29.88,NW,307,5.3,8.5,41,0.00,,,0.00,WUHU216HW,2013-06-16 18:04:00,
2013-06-16 13:14:00,81.1,55.4,29.88,WNW,283,5.6,8.5,41,0.00,,,0.00,WUHU216HW,2013-06-16 18:14:00,
2013-06-16 13:24:00,81.1,54.7,29.88,West,268,5.2,9.2,40,0.00,,,0.00,WUHU216HW,2013-06-16 18:24:00,
2013-06-16 13:34:00,79.9,53.6,29.88,WNW,303,5.1,7.6,40,0.00,,,0.00,WUHU216HW,2013-06-16 18:34:00,
2013-06-16 13:44:00,80.8,55.1,29.88,NW,304,4.4,6.0,41,0.00,,,0.00,WUHU216HW,2013-06-16 18:44:00,
2013-06-16 13:54:00,81.7,56.6,29.88,West,267,5.5,9.6,42,0.00,,,0.00,WUHU216HW,2013-06-16 18:54:00,
2013-06-16 14:04:00,81.5,55.1,29.88,WNW,291,6.7,11.4,40,0.00,,,0.00,WUHU216HW,2013-06-16 19:04:00,
2013-06-16 14:15:00,80.4,54.8,29.88,WNW,291,6.3,8.9,41,0.00,,,0.00,WUHU216HW,2013-06-16 19:15:00,
2013-06-16 14:25:00,80.2,55.9,29.88,NW,308,5.1,7.2,43,0.00,,,0.00,WUHU216HW,2013-06-16 19:25:00,
2013-06-16 14:35:00,80.4,55.4,29.88,NW,318,5.2,8.7,42,0.00,,,0.00,WUHU216HW,2013-06-16 19:35:00,
2013-06-16 14:45:00,80.6,52.8,29.88,NW,319,6.5,9.2,38,0.00,,,0.00,WUHU216HW,2013-06-16 19:45:00,
2013-06-16 14:55:00,81.3,54.9,29.88,West,261,5.9,10.3,40,0.00,,,0.00,WUHU216HW,2013-06-16 19:55:00,
2013-06-16 15:05:00,80.9,54.5,29.88,NW,318,6.0,8.3,40,0.00,,,0.00,WUHU216HW,2013-06-16 20:05:00,
2013-06-16 15:15:00,80.8,55.1,29.88,West,263,5.4,6.9,41,0.00,,,0.00,WUHU216HW,2013-06-16 20:15:00,
2013-06-16 15:25:00,80.8,55.8,29.88,WNW,285,5.1,6.9,42,0.00,,,0.00,WUHU216HW,2013-06-16 20:25:00,
2013-06-16 15:35:00,80.8,56.5,29.88,WSW,252,4.5,8.3,43,0.00,,,0.00,WUHU216HW,2013-06-16 20:35:00,
2013-06-16 15:45:00,80.6,53.6,29.88,NW,318,4.3,5.8,39,0.00,,,0.00,WUHU216HW,2013-06-16 20:45:00,
2013-06-16 15:55:00,80.8,56.5,29.88,West,270,4.2,7.8,43,0.00,,,0.00,WUHU216HW,2013-06-16 20:55:00,
2013-06-16 16:05:00,81.1,57.4,29.88,West,264,3.5,5.4,44,0.00,,,0.00,WUHU216HW,2013-06-16 21:05:00,
2013-06-16 16:15:00,80.9,55.9,29.88,WSW,248,4.7,7.4,42,0.00,,,0.00,WUHU216HW,2013-06-16 21:15:00,
2013-06-16 16:25:00,80.8,55.1,29.88,West,264,6.2,8.5,41,0.00,,,0.00,WUHU216HW,2013-06-16 21:25:00,
2013-06-16 16:35:00,80.8,54.4,29.88,WSW,256,5.6,9.4,40,0.00,,,0.00,WUHU216HW,2013-06-16 21:35:00,
2013-06-16 16:45:00,80.8,54.4,29.88,WNW,293,4.1,7.6,40,0.00,,,0.00,WUHU216HW,2013-06-16 21:45:00,
2013-06-16 16:55:00,80.8,57.1,29.88,WSW,258,4.2,6.5,44,0.00,,,0.00,WUHU216HW,2013-06-16 21:55:00,
2013-06-16 17:05:00,80.6,53.6,29.88,West,279,4.9,8.1,39,0.00,,,0.00,WUHU216HW,2013-06-16 22:05:00,
2013-06-16 17:15:00,80.4,52.7,29.87,NW,309,5.2,6.7,38,0.00,,,0.00,WUHU216HW,2013-06-16 22:15:00,
2013-06-16 17:25:00,80.8,55.1,29.87,West,281,4.3,6.3,41,0.00,,,0.00,WUHU216HW,2013-06-16 22:25:00,
2013-06-16 17:35:00,80.6,54.3,29.87,WNW,288,3.6,6.3,40,0.00,,,0.00,WUHU216HW,2013-06-16 22:35:00,
2013-06-16 17:45:00,80.4,54.1,29.87,West,269,4.4,6.5,40,0.00,,,0.00,WUHU216HW,2013-06-16 22:45:00,
2013-06-16 17:55:00,80.0,54.4,29.86,WNW,283,4.0,7.2,41,0.00,,,0.00,WUHU216HW,2013-06-16 22:55:00,
2013-06-16 18:05:00,79.9,54.3,29.86,WSW,252,3.4,7.6,41,0.00,,,0.00,WUHU216HW,2013-06-16 23:05:00,
2013-06-16 18:15:00,80.0,55.1,29.86,West,275,3.3,4.3,42,0.00,,,0.00,WUHU216HW,2013-06-16 23:15:00,
2013-06-16 18:25:00,80.4,56.1,29.86,West,273,2.8,4.3,43,0.00,,,0.00,WUHU216HW,2013-06-16 23:25:00,
2013-06-16 18:35:00,79.9,54.3,29.86,West,266,2.9,7.6,41,0.00,,,0.00,WUHU216HW,2013-06-16 23:35:00,
2013-06-16 18:45:00,79.9,56.3,29.86,West,275,3.1,5.1,44,0.00,,,0.00,WUHU216HW,2013-06-16 23:45:00,
2013-06-16 18:55:00,79.3,57.0,29.86,West,265,2.3,4.0,46,0.00,,,0.00,WUHU216HW,2013-06-16 23:55:00,
2013-06-16 19:05:00,79.1,56.8,29.86,WSW,242,1.1,1.8,46,0.00,,,0.00,WUHU216HW,2013-06-17 00:05:00,
2013-06-16 19:15:00,78.6,57.0,29.86,West,277,1.6,4.0,47,0.00,,,0.00,WUHU216HW,2013-06-17 00:15:00,
2013-06-16 19:25:00,77.9,56.9,29.86,West,278,1.4,2.9,48,0.00,,,0.00,WUHU216HW,2013-06-17 00:25:00,
2013-06-16 19:35:00,77.2,57.4,29.87,West,261,1.5,2.5,50,0.02,,,0.02,WUHU216HW,2013-06-17 00:35:00,
2013-06-16 19:45:00,76.3,57.2,29.86,WSW,246,1.8,4.3,51,0.02,,,0.02,WUHU216HW,2013-06-17 00:45:00,
2013-06-16 19:55:00,75.2,56.7,29.87,WSW,243,1.7,2.5,52,0.02,,,0.02,WUHU216HW,2013-06-17 00:55:00,
2013-06-16 20:05:00,73.9,56.0,29.87,SW,234,1.2,2.0,53,0.02,,,0.02,WUHU216HW,2013-06-17 01:05:00,
2013-06-16 20:15:00,72.8,55.5,29.87,WSW,238,1.0,1.8,54,0.02,,,0.02,WUHU216HW,2013-06-17 01:15:00,
2013-06-16 20:25:00,71.9,55.7,29.87,WSW,247,0.9,1.8,56,0.02,,,0.02,WUHU216HW,2013-06-17 01:25:00,
2013-06-16 20:35:00,70.9,55.7,29.87,SW,225,0.4,0.4,58,0.00,,,0.02,WUHU216HW,2013-06-17 01:35:00,
2013-06-16 20:45:00,70.0,54.9,29.86,WSW,256,0.6,0.7,58,0.00,,,0.02,WUHU216HW,2013-06-17 01:45:00,
2013-06-16 20:55:00,69.2,54.6,29.86,North,0,0.0,0.0,59,0.00,,,0.02,WUHU216HW,2013-06-17 01:55:00,
2013-06-16 21:06:00,68.7,54.6,29.86,North,0,0.0,0.0,60,0.00,,,0.02,WUHU216HW,2013-06-17 02:06:00,
2013-06-16 21:16:00,68.2,54.6,29.86,North,0,0.0,0.0,61,0.00,,,0.02,WUHU216HW,2013-06-17 02:16:00,
2013-06-16 21:26:00,67.6,54.5,29.87,North,0,0.0,0.0,62,0.00,,,0.02,WUHU216HW,2013-06-17 02:26:00,
2013-06-16 21:36:00,67.1,54.4,29.87,North,0,0.0,0.0,63,0.00,,,0.02,WUHU216HW,2013-06-17 02:36:00,
2013-06-16 21:46:00,66.5,54.3,29.88,North,0,0.0,0.0,64,0.00,,,0.02,WUHU216HW,2013-06-17 02:46:00,
2013-06-16 21:56:00,66.2,54.0,29.88,North,0,0.0,0.0,64,0.00,,,0.02,WUHU216HW,2013-06-17 02:56:00,
2013-06-16 22:06:00,65.8,54.5,29.88,North,0,0.0,0.0,66,0.00,,,0.02,WUHU216HW,2013-06-17 03:06:00,
2013-06-16 22:16:00,65.3,54.4,29.89,North,0,0.0,0.0,67,0.00,,,0.02,WUHU216HW,2013-06-17 03:16:00,
2013-06-16 22:26:00,64.9,54.0,29.89,North,0,0.0,0.0,67,0.00,,,0.02,WUHU216HW,2013-06-17 03:26:00,
2013-06-16 22:36:00,64.6,54.1,29.90,North,0,0.0,0.0,68,0.00,,,0.02,WUHU216HW,2013-06-17 03:36:00,
2013-06-16 22:46:00,64.0,53.9,29.90,North,0,0.0,0.0,69,0.00,,,0.02,WUHU216HW,2013-06-17 03:46:00,
2013-06-16 22:56:00,63.8,54.1,29.89,North,0,0.0,0.0,70,0.00,,,0.02,WUHU216HW,2013-06-17 03:56:00,
2013-06-16 23:06:00,63.5,53.8,29.89,North,0,0.0,0.0,70,0.00,,,0.02,WUHU216HW,2013-06-17 04:06:00,
2013-06-16 23:16:00,62.9,53.6,29.89,North,0,0.0,0.0,71,0.00,,,0.02,WUHU216HW,2013-06-17 04:16:00,
2013-06-16 23:26:00,62.4,53.9,29.89,North,0,0.0,0.0,73,0.00,,,0.02,WUHU216HW,2013-06-17 04:26:00,
2013-06-16 23:36:00,62.0,53.1,29.89,North,0,0.0,0.0,72,0.00,,,0.02,WUHU216HW,2013-06-17 04:36:00,
2013-06-16 23:46:00,61.7,52.9,29.88,North,0,0.0,0.0,72,0.00,,,0.02,WUHU216HW,2013-06-17 04:46:00,
2013-06-16 23:56:00,61.5,53.0,29.88,ESE,113,0.2,0.2,73,0.00,,,0.02,WUHU216HW,2013-06-17 04:56:00,